| time (UTC) | temp F | wind direction | speed MPH | gust MPH | rain 1hr in | rain 24hr in | rain mn in | humidity % | barometer mb |
| 20260504003000 | 74 | 164 | 1.0 | 3.0 | 0.00 | 0.00 | 0.00 | 41 | 1011.4 |
| 20260504002457 | 74 | 195 | 0.0 | 6.0 | 0.00 | 0.00 | 0.00 | 40 | 1011.3 |
| 20260504001954 | 75 | 220 | 2.0 | 3.0 | 0.00 | 0.00 | 0.00 | 40 | 1011.1 |
| 20260504001451 | 75 | 131 | 0.0 | 4.0 | 0.00 | 0.00 | 0.00 | 40 | 1011.2 |
| 20260504000948 | 75 | 153 | 1.0 | 4.0 | 0.00 | 0.00 | 0.00 | 39 | 1011.2 |
| 20260504000445 | 75 | 189 | 5.0 | 6.0 | 0.00 | 0.00 | 0.00 | 39 | 1011.2 |
| 20260503235942 | 76 | 151 | 2.0 | 4.0 | 0.00 | 0.00 | 0.00 | 38 | 1011.3 |
| 20260503235440 | 76 | 198 | 2.0 | 4.0 | 0.00 | 0.00 | 0.00 | 38 | 1011.5 |
| 20260503234937 | 76 | 230 | 2.0 | 5.0 | 0.00 | 0.00 | 0.00 | 38 | 1011.6 |
| 20260503234435 | 76 | 153 | 1.0 | 8.0 | 0.00 | 0.00 | 0.00 | 37 | 1011.4 |
| 20260503233933 | 76 | 304 | 2.0 | 9.0 | 0.00 | 0.00 | 0.00 | 37 | 1011.4 |
| 20260503233429 | 77 | 159 | 0.0 | 6.0 | 0.00 | 0.00 | 0.00 | 36 | 1011.5 |
| 20260503232925 | 77 | 244 | 1.0 | 6.0 | 0.00 | 0.00 | 0.00 | 36 | 1011.5 |
| 20260503232422 | 77 | 131 | 2.0 | 6.0 | 0.00 | 0.00 | 0.00 | 36 | 1011.7 |
| 20260503231920 | 77 | 260 | 0.0 | 10.0 | 0.00 | 0.00 | 0.00 | 36 | 1011.6 |
| 20260503231417 | 77 | 158 | 4.0 | 8.0 | 0.00 | 0.00 | 0.00 | 35 | 1011.6 |
| 20260503230914 | 77 | 137 | 2.0 | 6.0 | 0.00 | 0.00 | 0.00 | 34 | 1011.7 |
| 20260503230410 | 77 | 317 | 1.0 | 5.0 | 0.00 | 0.00 | 0.00 | 34 | 1011.7 |
| 20260503225908 | 77 | 308 | 2.0 | 9.0 | 0.00 | 0.00 | 0.00 | 34 | 1011.7 |
| 20260503225404 | 78 | 298 | 3.0 | 5.0 | 0.00 | 0.00 | 0.00 | 34 | 1011.7 |
| 20260503224900 | 78 | 219 | 0.0 | 6.0 | 0.00 | 0.00 | 0.00 | 35 | 1012.0 |
| 20260503224357 | 78 | 256 | 3.0 | 8.0 | 0.00 | 0.00 | 0.00 | 34 | 1012.0 |
| 20260503223855 | 78 | 319 | 2.0 | 5.0 | 0.00 | 0.00 | 0.00 | 34 | 1011.7 |
| 20260503223353 | 78 | 312 | 3.0 | 4.0 | 0.00 | 0.00 | 0.00 | 33 | 1012.0 |
| 20260503222848 | 79 | 109 | 7.0 | 7.0 | 0.00 | 0.00 | 0.00 | 32 | 1011.9 |
| 20260503222347 | 80 | 272 | 2.0 | 4.0 | 0.00 | 0.00 | 0.00 | 31 | 1012.1 |
| 20260503221844 | 80 | 252 | 4.0 | 7.0 | 0.00 | 0.00 | 0.00 | 30 | 1011.8 |
| 20260503221343 | 81 | 172 | 8.0 | 10.0 | 0.00 | 0.00 | 0.00 | 29 | 1012.0 |
| 20260503220838 | 82 | 81 | 0.0 | 6.0 | 0.00 | 0.00 | 0.00 | 30 | 1012.3 |
| 20260503220336 | 81 | 42 | 3.0 | 6.0 | 0.00 | 0.00 | 0.00 | 29 | 1012.2 |
| 20260503215832 | 82 | 163 | 2.0 | 6.0 | 0.00 | 0.00 | 0.00 | 29 | 1012.3 |
| 20260503215329 | 82 | 258 | 2.0 | 7.0 | 0.00 | 0.00 | 0.00 | 30 | 1012.2 |
| 20260503214826 | 81 | 197 | 0.0 | 9.0 | 0.00 | 0.00 | 0.00 | 30 | 1012.0 |
| 20260503214324 | 81 | 115 | 0.0 | 11.0 | 0.00 | 0.00 | 0.00 | 31 | 1012.2 |
| 20260503213816 | 80 | 185 | 2.0 | 11.0 | 0.00 | 0.00 | 0.00 | 29 | 1012.3 |
| 20260503213314 | 80 | 222 | 2.0 | 10.0 | 0.00 | 0.00 | 0.00 | 29 | 1011.9 |
| 20260503212810 | 80 | 117 | 4.0 | 14.0 | 0.00 | 0.00 | 0.00 | 30 | 1012.1 |
| 20260503212308 | 80 | 288 | 3.0 | 13.0 | 0.00 | 0.00 | 0.00 | 29 | 1012.1 |
| 20260503211805 | 80 | 232 | 4.0 | 7.0 | 0.00 | 0.00 | 0.00 | 28 | 1012.5 |
| 20260503211301 | 80 | 227 | 3.0 | 13.0 | 0.00 | 0.00 | 0.00 | 30 | 1012.4 |
| 20260503210755 | 80 | 261 | 1.0 | 10.0 | 0.00 | 0.00 | 0.00 | 30 | 1012.3 |
| 20260503210253 | 80 | 123 | 9.0 | 9.0 | 0.00 | 0.00 | 0.00 | 31 | 1012.4 |
| 20260503205748 | 79 | 301 | 8.0 | 12.0 | 0.00 | 0.00 | 0.00 | 31 | 1012.7 |
| 20260503205245 | 80 | 262 | 4.0 | 9.0 | 0.00 | 0.00 | 0.00 | 30 | 1012.9 |
| 20260503204742 | 80 | 153 | 2.0 | 10.0 | 0.00 | 0.00 | 0.00 | 31 | 1012.9 |
| 20260503204239 | 80 | 209 | 2.0 | 6.0 | 0.00 | 0.00 | 0.00 | 30 | 1012.7 |
| 20260503203737 | 79 | 289 | 4.0 | 9.0 | 0.00 | 0.00 | 0.00 | 31 | 1013.0 |
| 20260503203234 | 78 | 264 | 3.0 | 14.0 | 0.00 | 0.00 | 0.00 | 30 | 1013.1 |
| 20260503202731 | 78 | 232 | 3.0 | 16.0 | 0.00 | 0.00 | 0.00 | 32 | 1013.2 |
| 20260503202229 | 78 | 269 | 3.0 | 9.0 | 0.00 | 0.00 | 0.00 | 32 | 1013.3 |
| 20260503201727 | 78 | 245 | 5.0 | 10.0 | 0.00 | 0.00 | 0.00 | 32 | 1013.5 |
| 20260503201224 | 78 | 257 | 4.0 | 12.0 | 0.00 | 0.00 | 0.00 | 32 | 1013.8 |
| 20260503200720 | 78 | 180 | 2.0 | 8.0 | 0.00 | 0.00 | 0.00 | 33 | 1013.5 |
| 20260503200217 | 78 | 189 | 2.0 | 7.0 | 0.00 | 0.00 | 0.00 | 33 | 1014.0 |
| 20260503195713 | 76 | 238 | 4.0 | 18.0 | 0.00 | 0.00 | 0.00 | 33 | 1014.1 |
| 20260503195210 | 77 | 154 | 3.0 | 15.0 | 0.00 | 0.00 | 0.00 | 33 | 1014.3 |
| 20260503194708 | 77 | 274 | 3.0 | 11.0 | 0.00 | 0.00 | 0.00 | 33 | 1014.3 |
| 20260503194203 | 76 | 243 | 3.0 | 9.0 | 0.00 | 0.00 | 0.00 | 33 | 1014.4 |
| 20260503193700 | 79 | 259 | 3.0 | 9.0 | 0.00 | 0.00 | 0.00 | 33 | 1014.6 |
| 20260503193156 | 77 | 256 | 2.0 | 7.0 | 0.00 | 0.00 | 0.00 | 33 | 1014.6 |
| 20260503192651 | 78 | 257 | 5.0 | 6.0 | 0.00 | 0.00 | 0.00 | 34 | 1014.8 |
| 20260503192147 | 76 | 87 | 3.0 | 9.0 | 0.00 | 0.00 | 0.00 | 34 | 1015.0 |
| 20260503191644 | 74 | 113 | 5.0 | 11.0 | 0.00 | 0.00 | 0.00 | 34 | 1015.1 |
| 20260503191141 | 76 | 255 | 4.0 | 7.0 | 0.00 | 0.00 | 0.00 | 33 | 1015.4 |
| 20260503190638 | 75 | 257 | 3.0 | 9.0 | 0.00 | 0.00 | 0.00 | 34 | 1015.2 |
| 20260503190135 | 73 | 259 | 5.0 | 12.0 | 0.00 | 0.00 | 0.00 | 34 | 1015.7 |
| 20260503185631 | 74 | 214 | 3.0 | 11.0 | 0.00 | 0.00 | 0.00 | 33 | 1015.8 |
| 20260503185126 | 75 | 206 | 2.0 | 12.0 | 0.00 | 0.00 | 0.00 | 35 | 1015.8 |
| 20260503184622 | 73 | 193 | 3.0 | 12.0 | 0.00 | 0.00 | 0.00 | 34 | 1015.9 |
| 20260503184119 | 74 | 255 | 5.0 | 8.0 | 0.00 | 0.00 | 0.00 | 35 | 1016.1 |
| 20260503183615 | 73 | 286 | 3.0 | 8.0 | 0.00 | 0.00 | 0.00 | 35 | 1016.3 |
| 20260503183112 | 74 | 236 | 2.0 | 15.0 | 0.00 | 0.00 | 0.00 | 33 | 1016.2 |
| 20260503182611 | 73 | 194 | 0.0 | 8.0 | 0.00 | 0.00 | 0.00 | 36 | 1016.3 |
| 20260503182109 | 72 | 240 | 2.0 | 7.0 | 0.00 | 0.00 | 0.00 | 34 | 1016.6 |
| 20260503181605 | 71 | 236 | 2.0 | 8.0 | 0.00 | 0.00 | 0.00 | 35 | 1016.7 |
| 20260503181102 | 73 | 271 | 2.0 | 8.0 | 0.00 | 0.00 | 0.00 | 33 | 1016.8 |
| 20260503180559 | 73 | 157 | 2.0 | 9.0 | 0.00 | 0.00 | 0.00 | 37 | 1017.1 |
| 20260503180056 | 72 | 147 | 2.0 | 13.0 | 0.00 | 0.00 | 0.00 | 35 | 1017.1 |
| 20260503175553 | 71 | 249 | 3.0 | 8.0 | 0.00 | 0.00 | 0.00 | 36 | 1017.1 |
| 20260503175051 | 71 | 107 | 4.0 | 11.0 | 0.00 | 0.00 | 0.00 | 35 | 1017.7 |
| 20260503174548 | 71 | 322 | 4.0 | 10.0 | 0.00 | 0.00 | 0.00 | 34 | 1018.0 |
| 20260503174044 | 71 | 146 | 2.0 | 11.0 | 0.00 | 0.00 | 0.00 | 38 | 1018.0 |
| 20260503173539 | 71 | 256 | 1.0 | 6.0 | 0.00 | 0.00 | 0.00 | 37 | 1018.6 |
| 20260503173036 | 71 | 264 | 3.0 | 8.0 | 0.00 | 0.00 | 0.00 | 35 | 1018.8 |
| 20260503172533 | 70 | 104 | 9.0 | 10.0 | 0.00 | 0.00 | 0.00 | 35 | 1018.7 |
| 20260503172030 | 69 | 146 | 5.0 | 11.0 | 0.00 | 0.00 | 0.00 | 36 | 1018.8 |
| 20260503171527 | 70 | 118 | 5.0 | 7.0 | 0.00 | 0.00 | 0.00 | 37 | 1018.8 |
| 20260503171024 | 71 | 174 | 2.0 | 6.0 | 0.00 | 0.00 | 0.00 | 38 | 1018.6 |
| 20260503170520 | 70 | 182 | 2.0 | 5.0 | 0.00 | 0.00 | 0.00 | 37 | 1018.8 |
| 20260503150913 | 61 | 106 | 4.0 | 11.0 | 0.00 | 0.00 | 0.00 | 51 | 1020.2 |
| 20260503150409 | 60 | 322 | 3.0 | 10.0 | 0.00 | 0.00 | 0.00 | 52 | 1020.4 |
| 20260503131303 | 51 | 177 | 4.0 | 8.0 | 0.00 | 0.00 | 0.00 | 70 | 1021.4 |
| 20260503130800 | 50 | 225 | 1.0 | 5.0 | 0.00 | 0.00 | 0.00 | 73 | 1021.5 |
| 20260503130257 | 50 | 200 | 2.0 | 5.0 | 0.00 | 0.00 | 0.00 | 75 | 1021.5 |
| 20260503120217 | 42 | 102 | 2.0 | 2.0 | 0.00 | 0.00 | 0.00 | 92 | 1021.0 |
| 20260503110645 | 39 | 118 | 3.0 | 4.0 | 0.00 | 0.00 | 0.00 | 95 | 1020.7 |
| 20260503110142 | 39 | 68 | 2.0 | 3.0 | 0.00 | 0.00 | 0.00 | 95 | 1020.5 |
| 20260503100109 | 38 | 64 | 0.0 | 3.0 | 0.00 | 0.00 | 0.00 | 94 | 1021.0 |
| 20260503081451 | 39 | 87 | 1.0 | 2.0 | 0.00 | 0.00 | 0.00 | 94 | 1021.4 |
| 20260503080948 | 39 | 95 | 2.0 | 3.0 | 0.00 | 0.00 | 0.00 | 94 | 1021.3 |
| 20260503080440 | 39 | 104 | 1.0 | 2.0 | 0.00 | 0.00 | 0.00 | 94 | 1021.4 |
| 20260503072916 | 40 | 104 | 2.0 | 2.0 | 0.00 | 0.00 | 0.00 | 93 | 1021.7 |
| 20260503072414 | 40 | 94 | 1.0 | 3.0 | 0.00 | 0.00 | 0.00 | 93 | 1021.5 |
| 20260503071910 | 40 | 95 | 2.0 | 3.0 | 0.00 | 0.00 | 0.00 | 93 | 1021.6 |
| 20260503071408 | 40 | 98 | 2.0 | 3.0 | 0.00 | 0.00 | 0.00 | 93 | 1021.6 |
| 20260503070903 | 40 | 102 | 2.0 | 3.0 | 0.00 | 0.00 | 0.00 | 93 | 1021.4 |
| 20260503070401 | 40 | 101 | 1.0 | 2.0 | 0.00 | 0.00 | 0.00 | 93 | 1021.5 |
| 20260503060326 | 41 | 96 | 2.0 | 2.0 | 0.00 | 0.00 | 0.00 | 91 | 1022.1 |
| 20260503054814 | 41 | 110 | 2.0 | 2.0 | 0.00 | 0.00 | 0.00 | 91 | 1021.9 |
| 20260503054310 | 41 | 105 | 1.0 | 2.0 | 0.00 | 0.00 | 0.00 | 91 | 1022.0 |
| 20260503053808 | 42 | 100 | 2.0 | 3.0 | 0.00 | 0.00 | 0.00 | 90 | 1021.9 |
| 20260503053307 | 42 | 119 | 0.0 | 2.0 | 0.00 | 0.00 | 0.00 | 90 | 1022.0 |
| 20260503052802 | 42 | 95 | 1.0 | 3.0 | 0.00 | 0.00 | 0.00 | 89 | 1022.1 |
| 20260503052300 | 42 | 112 | 1.0 | 3.0 | 0.00 | 0.00 | 0.00 | 89 | 1022.2 |
| 20260503051755 | 42 | 114 | 1.0 | 2.0 | 0.00 | 0.00 | 0.00 | 88 | 1022.2 |
| 20260503051252 | 42 | 98 | 1.0 | 2.0 | 0.00 | 0.00 | 0.00 | 89 | 1022.3 |
| 20260503050748 | 42 | 99 | 2.0 | 3.0 | 0.00 | 0.00 | 0.00 | 89 | 1022.1 |
| 20260503050239 | 42 | 108 | 0.0 | 2.0 | 0.00 | 0.00 | 0.00 | 89 | 1022.2 |
| 20260503045737 | 42 | 127 | 1.0 | 2.0 | 0.00 | 0.00 | 0.00 | 90 | 1022.2 |
| 20260503045234 | 42 | 105 | 2.0 | 2.0 | 0.00 | 0.00 | 0.00 | 90 | 1022.1 |
| 20260503044730 | 42 | 91 | 1.0 | 3.0 | 0.00 | 0.00 | 0.00 | 90 | 1022.1 |
| 20260503044228 | 42 | 66 | 0.0 | 3.0 | 0.00 | 0.00 | 0.00 | 89 | 1022.0 |
| 20260503043724 | 42 | 110 | 2.0 | 3.0 | 0.00 | 0.00 | 0.00 | 88 | 1022.2 |
| 20260503043222 | 43 | 87 | 1.0 | 2.0 | 0.00 | 0.00 | 0.00 | 87 | 1022.1 |
| 20260503042718 | 43 | 97 | 2.0 | 2.0 | 0.00 | 0.00 | 0.00 | 86 | 1022.1 |
| 20260503042215 | 43 | 103 | 1.0 | 3.0 | 0.00 | 0.00 | 0.00 | 87 | 1021.9 |
| 20260503041710 | 43 | 124 | 2.0 | 3.0 | 0.00 | 0.00 | 0.00 | 86 | 1022.1 |
| 20260503041209 | 43 | 111 | 1.0 | 2.0 | 0.00 | 0.00 | 0.00 | 86 | 1022.0 |
| 20260503040706 | 43 | 99 | 1.0 | 3.0 | 0.00 | 0.00 | 0.00 | 87 | 1022.1 |
| 20260503040203 | 44 | 109 | 1.0 | 3.0 | 0.00 | 0.00 | 0.00 | 86 | 1022.0 |
| 20260503035659 | 44 | 114 | 2.0 | 3.0 | 0.00 | 0.00 | 0.00 | 86 | 1021.9 |
| 20260503035157 | 44 | 101 | 2.0 | 3.0 | 0.00 | 0.00 | 0.00 | 84 | 1022.1 |
| 20260503034655 | 44 | 60 | 0.0 | 2.0 | 0.00 | 0.00 | 0.00 | 85 | 1022.2 |
| 20260503034151 | 44 | 84 | 0.0 | 2.0 | 0.00 | 0.00 | 0.00 | 85 | 1022.1 |
| 20260503033649 | 44 | 108 | 2.0 | 3.0 | 0.00 | 0.00 | 0.00 | 85 | 1022.2 |
| 20260503033146 | 44 | 104 | 2.0 | 3.0 | 0.00 | 0.00 | 0.00 | 84 | 1022.0 |
| 20260503032644 | 45 | 105 | 2.0 | 3.0 | 0.00 | 0.00 | 0.00 | 83 | 1022.1 |
| 20260503032143 | 45 | 93 | 1.0 | 2.0 | 0.00 | 0.00 | 0.00 | 84 | 1022.1 |
| 20260503031640 | 45 | 102 | 1.0 | 3.0 | 0.00 | 0.00 | 0.00 | 83 | 1022.0 |
| 20260503031137 | 45 | 94 | 2.0 | 2.0 | 0.00 | 0.00 | 0.00 | 83 | 1022.2 |
| 20260503030633 | 45 | 108 | 2.0 | 2.0 | 0.00 | 0.00 | 0.00 | 83 | 1022.1 |
| 20260503030130 | 46 | 119 | 2.0 | 3.0 | 0.00 | 0.00 | 0.00 | 81 | 1022.0 |
| 20260503025626 | 46 | 126 | 0.0 | 2.0 | 0.00 | 0.00 | 0.00 | 81 | 1022.1 |
| 20260503025125 | 46 | 80 | 0.0 | 3.0 | 0.00 | 0.00 | 0.00 | 81 | 1022.0 |
| 20260503024621 | 46 | 116 | 2.0 | 3.0 | 0.00 | 0.00 | 0.00 | 81 | 1022.0 |
| 20260503024118 | 46 | 110 | 2.0 | 3.0 | 0.00 | 0.00 | 0.00 | 82 | 1021.9 |
| 20260503023615 | 46 | 106 | 2.0 | 2.0 | 0.00 | 0.00 | 0.00 | 81 | 1022.0 |
| 20260503023112 | 46 | 114 | 1.0 | 2.0 | 0.00 | 0.00 | 0.00 | 81 | 1022.1 |
| 20260503022608 | 46 | 107 | 2.0 | 2.0 | 0.00 | 0.00 | 0.00 | 80 | 1022.1 |
| 20260503022103 | 47 | 112 | 2.0 | 3.0 | 0.00 | 0.00 | 0.00 | 79 | 1022.1 |
| 20260503021600 | 47 | 99 | 1.0 | 3.0 | 0.00 | 0.00 | 0.00 | 78 | 1021.9 |
| 20260503021057 | 47 | 118 | 2.0 | 3.0 | 0.00 | 0.00 | 0.00 | 77 | 1022.0 |
| 20260503020554 | 48 | 113 | 1.0 | 3.0 | 0.00 | 0.00 | 0.00 | 75 | 1022.0 |
| 20260503020050 | 48 | 115 | 1.0 | 2.0 | 0.00 | 0.00 | 0.00 | 74 | 1021.8 |
| 20260503015547 | 48 | 110 | 2.0 | 3.0 | 0.00 | 0.00 | 0.00 | 73 | 1021.9 |
| 20260503015045 | 49 | 116 | 1.0 | 2.0 | 0.00 | 0.00 | 0.00 | 72 | 1021.7 |
| 20260503014540 | 50 | 105 | 1.0 | 2.0 | 0.00 | 0.00 | 0.00 | 69 | 1021.8 |
| 20260503014039 | 49 | 108 | 2.0 | 2.0 | 0.00 | 0.00 | 0.00 | 70 | 1021.5 |
| 20260503013535 | 50 | 99 | 2.0 | 2.0 | 0.00 | 0.00 | 0.00 | 68 | 1021.5 |
| 20260503013033 | 51 | 118 | 1.0 | 2.0 | 0.00 | 0.00 | 0.00 | 67 | 1021.4 |
| 20260503012531 | 52 | 98 | 1.0 | 3.0 | 0.00 | 0.00 | 0.00 | 65 | 1021.5 |
| 20260503012027 | 52 | 124 | 0.0 | 2.0 | 0.00 | 0.00 | 0.00 | 64 | 1021.5 |
| 20260503011523 | 53 | 110 | 2.0 | 2.0 | 0.00 | 0.00 | 0.00 | 62 | 1021.4 |
| 20260503011021 | 53 | 97 | 2.0 | 2.0 | 0.00 | 0.00 | 0.00 | 61 | 1021.1 |
| 20260503010517 | 53 | 108 | 1.0 | 2.0 | 0.00 | 0.00 | 0.00 | 61 | 1021.3 |
| 20260503010015 | 54 | 114 | 2.0 | 2.0 | 0.00 | 0.00 | 0.00 | 58 | 1021.1 |
| 20260503005512 | 55 | 110 | 1.0 | 2.0 | 0.00 | 0.00 | 0.00 | 58 | 1021.4 |
| 20260503005009 | 56 | 129 | 0.0 | 3.0 | 0.00 | 0.00 | 0.00 | 57 | 1021.0 |
| 20260503004505 | 56 | 99 | 2.0 | 2.0 | 0.00 | 0.00 | 0.00 | 55 | 1021.1 |
| 20260503004003 | 56 | 113 | 0.0 | 2.0 | 0.00 | 0.00 | 0.00 | 56 | 1021.0 |
| 20260503003459 | 57 | 114 | 2.0 | 3.0 | 0.00 | 0.00 | 0.00 | 54 | 1021.3 |